RH
59 58 53 45 46 44 44 43 42 40 38 37 34 30 29 27 32 44 59 84 99 99 91 66 59 54 49 50 52 51 50 49 45 41 47 42 37 42 45 58 70 55 35 26
59 57 60 57 52 47 50 48 43 40 36 34 31 28 29 30 33 50 52 66 81 77 68 70 55 47 46 52 53 52 53 47 44 39 39 39 38 49 58 71 71 73 55 36
62 54 51 54 52 48 50 45 42 37 36 35 33 30 34 38 47 58 66 73 70 60 70 77 60 51 51 58 55 54 51 48 44 39 38 39 38 44 73 88 86 72 67 61
57 51 44 50 52 50 49 46 43 40 37 36 35 32 36 44 61 74 80 82 79 83 91 86 64 54 51 54 64 62 57 48 45 43 40 40 43 57 75 83 79 79 74 76
56 50 49 58 58 52 46 44 42 44 41 40 37 32 42 54 78 86 89 79 84 89 60 51 55 67 76 74 66 60 50 45 43 45 47 52 51 69 69 85 81 90 88 80
52 55 56 51 51 51 48 45 42 43 40 35 32 36 68 76 93 94 87 85 84 81 59 53 59 73 85 80 58 53 48 46 42 48 54 65 79 77 63 50 62 68 76 67
55 58 55 52 56 58 50 42 42 38 38 31 31 41 78 80 93 90 86 84 93 86 70 70 70 71 84 86 61 52 49 50 50 54 71 98 99 68 58 48 52 36 41 45
46 46 52 58 66 62 47 48 45 38 33 30 36 54 73 75 88 88 82 87 80 70 61 65 68 80 80 66 61 53 54 50 65 88 97 95 74 46 38 42 45 38 32 38
40 40 44 54 55 53 47 43 36 33 32 41 54 78 80 82 85 74 68 68 65 58 54 58 77 82 79 67 60 65 69 81 94 96 92 75 58 39 32 32 39 45 37 38
40 37 43 44 48 49 46 38 38 47 51 65 74 80 85 67 80 76 60 60 58 52 60 80 88 96 75 72 81 86 84 92 100 92 65 54 44 39 32 30 31 40 44 41
39 39 41 50 55 48 44 40 51 68 75 77 70 82 99 85 75 62 61 62 57 68 89 99 100 86 80 96 100 99 100 100 100 95 84 63 36 35 33 32 34 33 44 51
39 35 43 48 45 46 44 56 85 87 90 80 79 75 100 100 82 68 89 84 85 98 100 100 94 98 100 100 100 100 98 87 92 92 84 62 43 40 43 41 42 42 39 41
42 48 48 41 52 60 75 85 82 78 72 85 80 96 84 98 76 99 100 100 100 100 100 99 98 100 100 100 100 100 88 83 86 74 62 55 42 39 48 44 40 40 37 33
50 49 48 39 72 82 71 68 85 73 75 86 82 86 100 80 98 100 100 100 100 100 98 97 98 100 100 100 96 91 78 68 70 64 51 40 38 37 42 42 39 38 35 28
47 43 40 48 99 91 83 74 87 92 94 99 98 93 89 89 100 100 100 100 100 100 100 100 100 100 99 87 84 65 64 66 56 50 37 35 36 38 37 37 36 34 32 26
51 53 84 89 96 86 65 91 94 100 100 83 84 97 100 100 98 100 100 98 100 100 100 100 100 90 90 68 64 49 54 56 47 39 32 32 35 37 36 35 34 30 26 24
85 77 68 62 87 78 78 99 100 100 100 100 100 100 100 100 100 98 89 100 100 96 97 96 87 70 77 70 50 40 48 46 39 32 30 33 32 31 28 22 17 18 19 19
92 100 100 94 94 80 77 75 84 93 99 95 79 86 90 94 93 100 100 94 89 69 61 55 65 63 63 57 36 34 36 34 29 27 27 26 26 25 22 22 20 16 17 19
94 89 85 86 84 78 80 68 66 72 72 80 98 98 100 100 100 88 71 67 69 56 43 42 42 44 36 28 26 27 27 24 24 25 24 20 19 18 17 17 17 17 17 17
100 100 100 100 90 66 69 71 91 100 100 100 98 97 91 81 80 66 60 56 53 48 46 33 26 26 23 23 24 24 23 23 24 23 18 17 16 16 17 16 17 17 16 15
68 69 68 69 78 71 82 79 75 80 81 71 68 68 77 75 64 65 62 60 45 42 35 29 27 23 22 22 24 25 23 21 18 16 16 16 15 15 16 16 15 14 13 13
72 69 68 84 88 80 94 92 92 81 82 86 80 72 72 69 58 48 43 43 44 40 36 33 26 22 21 21 21 21 18 14 14 15 15 14 15 15 14 14 14 13 13 14
54 54 69 85 70 70 76 77 72 70 76 75 74 74 67 67 58 48 39 30 26 26 25 21 21 21 21 19 17 15 14 14 15 15 15 16 15 14 14 13 13 13 14 14
38 37 46 57 76 73 57 58 57 50 46 50 60 48 40 37 39 30 30 26 22 22 21 20 20 20 16 14 12 14 14 14 16 16 15 14 12 12 13 13 14 15 15 15
46 48 56 51 52 58 63 58 50 44 40 41 42 39 31 31 34 36 26 22 22 20 20 19 16 13 12 13 14 14 14 15 15 13 12 12 13 14 14 13 12 12 11 11
43 47 50 49 48 49 56 49 38 28 26 32 37 30 31 31 27 22 20 20 19 19 17 13 12 11 13 13 14 14 14 13 12 13 14 14 13 11 10 11 11 10 12 12
Wind_Speed
33 34 34 35 39 41 43 46 48 52 53 56 58 60 59 56 53 53 50 51 55 60 62 63 67 70 72 66 67 69 72 73 73 76 72 70 67 56 48 43 43 42 40 41
37 38 40 41 42 44 47 50 51 53 57 56 61 65 65 60 57 52 51 54 57 60 62 67 69 70 73 69 70 76 78 78 78 78 75 74 69 62 52 48 46 46 42 41
42 41 43 45 45 47 51 52 54 54 55 61 63 64 69 66 57 52 53 57 61 63 65 70 71 73 71 74 75 80 80 78 82 81 80 77 70 66 62 54 53 48 46 45
46 45 46 50 50 52 54 58 59 59 59 61 65 63 68 59 55 56 58 60 64 68 73 74 75 77 77 76 79 85 87 86 86 85 85 81 74 70 67 59 54 50 50 50
49 49 51 55 57 58 59 62 62 63 64 64 67 68 63 54 58 60 59 62 69 74 72 74 76 75 78 81 86 90 88 87 89 89 88 81 75 73 70 64 59 55 55 55
51 53 56 59 62 64 66 66 67 66 69 68 68 67 56 56 60 62 62 62 68 74 74 77 79 81 83 86 91 92 93 95 97 92 90 85 78 73 69 66 61 62 59 54
54 59 62 64 67 70 71 72 71 69 70 70 70 62 57 59 64 68 69 71 74 76 79 81 86 86 88 92 97 96 95 95 94 93 91 85 81 76 72 68 64 64 59 54
60 59 64 68 73 74 74 76 81 77 74 75 71 60 57 61 68 71 73 76 79 81 83 88 92 91 94 96 98 99 99 98 95 91 89 88 82 81 78 70 66 64 61 58
67 65 67 70 73 79 78 80 82 83 81 75 63 59 62 66 73 74 76 77 81 83 86 92 97 98 100 100 103 103 102 99 93 91 90 89 87 84 78 72 69 66 63 60
73 73 73 76 79 81 84 84 87 84 74 66 64 69 72 77 79 83 80 82 85 88 93 101 101 105 104 108 108 108 103 98 96 91 91 90 89 85 81 76 71 68 65 62
82 81 78 79 81 82 83 87 85 76 76 78 74 74 82 85 87 87 87 92 94 97 103 106 108 111 112 112 112 107 102 99 99 97 96 96 94 89 84 80 76 71 68 66
85 86 81 82 84 87 86 81 76 80 80 82 84 78 91 95 98 94 99 102 105 107 108 110 112 114 114 114 112 106 106 105 101 98 97 95 94 91 86 82 79 78 76 75
88 87 86 84 86 83 76 76 79 84 87 85 90 88 94 101 101 102 106 110 111 109 113 115 117 115 116 112 110 108 103 102 101 100 97 96 92 90 88 86 85 86 87 86
91 89 90 88 80 79 78 80 85 90 90 93 92 94 102 103 105 108 112 114 116 119 118 118 117 115 113 111 108 105 103 104 104 102 101 98 94 90 88 89 92 95 97 97
96 93 95 86 83 87 87 87 93 96 97 102 97 104 105 107 111 113 115 118 121 120 122 119 116 112 112 108 107 107 104 104 105 104 103 100 96 94 94 96 99 101 102 101
89 84 84 81 90 94 91 94 99 103 105 102 104 108 111 114 115 117 118 120 122 122 118 114 111 112 109 111 111 109 107 106 106 105 103 102 98 98 100 102 104 104 101 96
90 93 95 89 98 98 94 100 103 105 109 111 113 115 118 118 119 123 121 124 118 114 111 112 111 110 111 113 113 108 105 105 106 105 104 103 102 102 104 104 98 94 92 89
97 99 102 100 103 102 104 104 106 109 112 115 116 117 119 123 124 124 126 123 117 116 113 111 111 113 114 112 111 109 107 107 106 105 104 105 107 107 105 103 101 91 84 83
106 107 108 108 109 108 109 112 112 114 116 118 119 121 122 127 128 127 125 123 121 119 116 113 114 113 112 112 110 109 109 108 106 106 109 109 106 104 100 95 91 88 83 78
107 111 115 116 118 116 113 115 117 120 120 123 124 125 125 125 126 124 123 120 120 118 118 117 115 113 112 112 112 111 110 109 109 110 109 106 102 97 94 91 87 83 80 76
110 114 117 119 122 121 120 121 122 124 125 124 126 125 124 122 122 124 123 124 121 121 121 118 117 114 113 112 112 111 110 110 110 107 104 99 94 90 87 84 82 79 75 71
114 116 116 119 123 125 123 125 127 127 126 124 124 124 125 126 127 126 126 124 124 123 121 121 119 117 114 113 111 112 113 109 104 100 95 91 88 85 82 79 77 74 71 68
117 117 117 118 119 122 124 124 125 125 125 126 126 128 128 129 131 130 127 124 122 121 120 118 116 115 115 115 113 109 106 102 97 93 89 86 83 80 77 75 74 72 70 67
115 116 120 121 119 120 122 123 124 126 128 129 129 129 131 129 126 124 123 122 122 121 119 117 117 117 116 112 108 104 97 93 90 87 85 82 78 76 74 71 71 69 69 67
124 123 123 123 122 124 128 129 129 129 129 130 130 133 131 129 128 128 126 124 121 120 119 118 118 115 110 106 101 97 91 86 84 82 80 78 75 74 72 70 68 65 64 62
127 128 129 132 130 131 130 132 134 132 131 131 131 127 127 126 126 125 123 122 121 120 119 118 113 107 102 97 94 91 87 84 81 79 77 75 72 70 67 64 64 62 60 59
Wind_Direction
313 315 317 319 321 322 323 324 325 326 326 326 328 325 323 323 322 319 315 316 319 320 322 323 323 324 323 320 322 323 324 326 327 328 329 332 331 330 328 323 309 305 298 284
308 312 313 315 318 318 319 318 321 323 325 326 324 324 321 320 319 316 315 315 317 319 323 323 322 323 323 321 319 319 321 321 324 324 328 330 329 331 329 328 318 304 303 290
306 310 311 311 313 313 314 315 317 320 321 323 321 322 320 319 318 318 319 318 317 319 319 320 321 321 321 321 320 319 319 319 323 324 327 330 328 332 333 323 317 308 298 297
303 308 306 308 310 310 310 312 314 316 319 322 320 321 316 317 316 319 321 320 319 319 318 319 319 320 318 318 318 318 317 318 321 324 325 328 331 333 328 322 315 306 300 295
302 305 304 306 305 306 308 310 313 315 317 318 318 320 313 315 316 318 321 320 317 318 318 318 318 318 319 318 317 317 317 319 320 323 325 327 332 330 325 317 311 305 302 297
301 302 302 302 303 305 307 308 311 313 315 316 317 318 307 311 311 312 315 316 315 314 316 315 316 315 316 317 318 317 318 318 318 322 325 328 327 323 319 315 311 306 302 296
298 300 300 302 303 304 306 308 308 311 311 312 314 311 302 304 305 308 311 313 314 314 314 316 316 316 316 315 316 318 318 319 320 322 325 324 321 316 314 314 309 307 301 296
295 296 299 302 303 304 306 307 308 311 310 311 310 307 303 303 304 307 311 313 312 312 314 317 317 317 316 315 316 317 318 318 321 323 322 319 317 316 314 312 307 304 300 294
295 296 298 299 301 303 306 306 308 308 309 311 308 306 306 304 303 306 309 310 309 309 314 317 316 315 315 315 317 318 319 322 321 319 318 316 314 314 313 311 304 300 297 293
296 297 299 301 301 303 304 305 307 307 308 309 309 308 307 307 306 306 309 308 307 312 316 315 315 315 315 317 318 318 318 319 317 316 317 315 312 311 310 308 306 302 297 293
296 297 301 301 300 301 302 304 305 307 309 308 311 311 309 307 307 308 311 310 312 316 317 315 316 316 317 318 317 317 317 314 313 313 314 315 314 311 310 308 306 304 299 293
294 297 298 298 299 300 300 301 302 306 306 307 309 315 307 309 308 315 314 313 315 316 315 315 316 317 316 315 315 314 314 314 313 312 312 313 312 310 307 305 303 301 298 295
294 295 296 297 299 297 298 301 303 303 304 308 308 311 309 307 312 312 312 312 312 313 314 315 316 315 314 313 312 311 312 312 311 311 311 311 310 308 304 303 302 300 298 296
290 292 293 297 296 295 298 299 300 301 305 305 309 306 305 308 309 308 309 310 311 312 313 313 313 312 311 310 310 310 310 311 311 310 310 309 307 306 304 301 301 301 299 298
290 291 293 292 292 293 298 301 302 302 304 304 305 306 305 307 306 306 307 308 311 312 312 312 310 309 310 310 309 310 310 310 310 309 308 308 305 303 302 301 300 299 298 298
288 290 289 289 292 295 299 302 299 302 301 302 303 303 304 304 305 307 307 309 309 310 309 308 308 309 309 310 311 310 309 309 308 308 307 305 304 302 301 301 300 299 297 295
290 292 292 293 292 295 298 296 298 298 300 301 302 302 302 303 304 305 306 308 307 307 307 307 308 310 310 311 310 309 307 307 306 306 304 304 302 300 299 299 298 296 294 293
291 291 292 293 293 294 295 296 296 297 297 297 299 299 300 302 303 305 305 306 306 306 308 310 309 309 309 309 308 306 305 305 304 303 302 301 301 301 300 300 299 298 294 291
289 289 290 291 292 294 296 295 296 296 296 297 298 299 300 301 300 301 304 303 304 306 307 308 307 307 306 306 306 305 303 303 302 302 302 302 301 300 299 297 296 295 294 292
289 291 292 292 292 293 294 295 294 295 295 296 297 297 297 298 301 301 303 305 305 305 306 306 305 306 306 306 306 305 304 303 303 303 302 301 300 299 298 297 296 295 293 292
282 284 286 288 289 290 291 290 291 291 292 293 295 296 299 300 302 303 304 305 305 305 305 305 306 306 306 305 305 305 303 302 302 302 301 300 298 298 297 296 295 294 293 292
284 285 286 286 288 289 291 293 295 295 293 296 297 298 299 300 302 303 303 305 305 305 306 306 306 305 304 304 304 303 304 303 302 301 299 299 299 298 297 296 295 294 293 291
285 285 286 288 289 291 291 291 293 296 296 297 299 300 301 301 303 305 305 304 304 304 304 304 304 304 304 304 304 304 302 302 301 300 300 299 298 297 296 295 293 293 291 290
287 289 288 289 290 292 293 293 294 296 297 298 298 299 300 301 303 304 303 303 303 304 304 304 305 304 304 305 305 304 303 302 300 299 298 297 296 295 294 293 291 290 288 287
287 289 290 290 291 292 293 294 295 295 296 297 299 300 301 301 302 302 302 303 303 303 304 304 304 304 304 304 303 302 302 300 300 300 299 298 297 296 294 291 289 288 286 285
288 287 289 290 290 292 293 294 295 295 297 298 298 300 300 301 300 301 302 302 302 303 303 304 304 303 304 304 303 303 303 302 301 299 297 296 293 292 290 289 287 285 284 284